Retour au catalogue

ARIANE 44L+ DEB

ActifGTO
NORAD 32999·DEBRIS·🇫🇷 France

Lancé Apr 15, 1992 depuis Guiana Space Centre

Loading…

TLE

VieillissantSource: Space-Track

Époque: Sep 14, 2026, 12:58 UTC

1 32999U 92021T   26257.54060497 -.00000039  00000-0  11288-1 0  9997
2 32999   4.0164 293.8460 7024859 257.1785 147.8222  2.24668958195732

Suivez ARIANE 44L+ DEB en temps réel avec AllMySat

Download on the App Store